Time,TemperatureF,DewpointF,PressureIn,WindDirection,WindDirectionDegrees,WindSpeedMPH,WindSpeedGustMPH,Humidity,HourlyPrecipIn,Conditions,Clouds,dailyrainin,SolarRadiationWatts/m^2,SoftwareType,DateUTC
2013-05-19 00:03:00,54.0,54.0,-100.00,SSE,151,4.0,5.0,100,0.00,,,0.01,0.000000,,2013-05-19 04:03:00,
2013-05-19 00:13:00,54.0,54.0,-100.00,SSE,151,4.0,5.0,100,0.00,,,0.01,0.000000,,2013-05-19 04:13:00,
2013-05-19 00:33:00,54.0,54.0,-100.00,SSE,149,4.0,6.0,100,0.00,,,0.01,0.000000,,2013-05-19 04:33:00,
2013-05-19 00:42:00,54.0,54.0,-100.00,SSE,149,4.0,6.0,100,0.00,,,0.01,0.000000,,2013-05-19 04:42:00,
2013-05-19 00:53:00,54.0,54.0,-100.00,SSE,149,4.0,6.0,100,0.00,,,0.01,0.000000,,2013-05-19 04:53:00,
2013-05-19 01:02:00,54.0,54.0,-100.00,SSE,149,4.0,6.0,100,0.00,,,0.01,0.000000,,2013-05-19 05:02:00,
2013-05-19 01:12:00,54.0,54.0,-100.00,SSE,149,4.0,6.0,100,0.00,,,0.01,0.000000,,2013-05-19 05:12:00,
2013-05-19 01:42:00,54.0,54.0,-100.00,SE,145,4.0,7.0,100,0.00,,,0.01,0.000000,,2013-05-19 05:42:00,
2013-05-19 01:52:00,54.0,54.0,-100.00,SE,145,4.0,7.0,100,0.00,,,0.01,0.000000,,2013-05-19 05:52:00,
2013-05-19 02:02:00,54.0,54.0,-100.00,SE,145,4.0,7.0,100,0.00,,,0.01,0.000000,,2013-05-19 06:02:00,
2013-05-19 02:12:00,54.0,54.0,-100.00,SE,145,4.0,7.0,100,0.00,,,0.01,0.000000,,2013-05-19 06:12:00,
2013-05-19 02:42:00,54.0,54.0,-100.00,SSE,152,3.0,6.0,100,0.00,,,0.01,0.000000,,2013-05-19 06:42:00,
2013-05-19 02:52:00,54.0,54.0,-100.00,SSE,152,3.0,6.0,100,0.00,,,0.01,0.000000,,2013-05-19 06:52:00,
2013-05-19 03:01:00,54.0,54.0,-100.00,SSE,152,3.0,6.0,100,0.00,,,0.01,0.000000,,2013-05-19 07:01:00,
2013-05-19 03:11:00,54.0,54.0,-100.00,SSE,152,3.0,6.0,100,0.00,,,0.01,0.000000,,2013-05-19 07:11:00,
2013-05-19 03:42:00,54.0,54.0,-100.00,SSE,150,3.0,5.0,100,0.00,,,0.01,0.000000,,2013-05-19 07:42:00,
2013-05-19 03:52:00,54.0,54.0,-100.00,SSE,150,3.0,5.0,100,0.00,,,0.01,0.000000,,2013-05-19 07:52:00,
2013-05-19 04:02:00,54.0,54.0,-100.00,SSE,150,3.0,5.0,100,0.00,,,0.01,0.000000,,2013-05-19 08:02:00,
2013-05-19 04:12:00,54.0,54.0,-100.00,SSE,150,3.0,5.0,100,0.00,,,0.01,0.000000,,2013-05-19 08:12:00,
2013-05-19 04:42:00,53.0,53.0,-100.00,SE,141,3.0,5.0,100,0.00,,,0.01,0.000000,,2013-05-19 08:42:00,
2013-05-19 04:52:00,53.0,53.0,-100.00,SE,141,3.0,5.0,100,0.00,,,0.01,0.000000,,2013-05-19 08:52:00,
2013-05-19 05:02:00,53.0,53.0,-100.00,SE,141,3.0,5.0,100,0.00,,,0.01,0.000000,,2013-05-19 09:02:00,
2013-05-19 05:12:00,53.0,53.0,-100.00,SE,141,3.0,5.0,100,0.00,,,0.01,0.000000,,2013-05-19 09:12:00,
2013-05-19 05:33:00,54.0,54.0,-100.00,SE,145,3.0,7.0,100,0.00,,,0.01,0.000000,,2013-05-19 09:33:00,
2013-05-19 05:43:00,54.0,54.0,-100.00,SE,145,3.0,7.0,100,0.00,,,0.01,0.000000,,2013-05-19 09:43:00,
2013-05-19 05:53:00,54.0,54.0,-100.00,SE,145,3.0,7.0,100,0.00,,,0.01,0.000000,,2013-05-19 09:53:00,
2013-05-19 06:03:00,54.0,54.0,-100.00,SE,145,3.0,7.0,100,0.00,,,0.01,0.000000,,2013-05-19 10:03:00,
2013-05-19 06:12:00,54.0,54.0,-100.00,SE,145,3.0,7.0,100,0.00,,,0.01,0.000000,,2013-05-19 10:12:00,
2013-05-19 06:42:00,54.0,54.0,-100.00,SE,146,3.0,5.0,100,0.00,,,0.01,0.000000,,2013-05-19 10:42:00,
2013-05-19 06:53:00,54.0,54.0,-100.00,SE,146,3.0,5.0,100,0.00,,,0.01,0.000000,,2013-05-19 10:53:00,
2013-05-19 07:02:00,54.0,54.0,-100.00,SE,146,3.0,5.0,100,0.00,,,0.01,0.000000,,2013-05-19 11:02:00,
2013-05-19 07:12:00,54.0,54.0,-100.00,SE,146,3.0,5.0,100,0.00,,,0.01,0.000000,,2013-05-19 11:12:00,
2013-05-19 07:32:00,54.0,54.0,-100.00,SE,145,3.0,4.0,100,0.00,,,0.01,15.000000,,2013-05-19 11:32:00,
2013-05-19 07:42:00,54.0,54.0,-100.00,SE,145,3.0,4.0,100,0.00,,,0.01,15.000000,,2013-05-19 11:42:00,
2013-05-19 07:53:00,54.0,54.0,-100.00,SE,145,3.0,4.0,100,0.00,,,0.01,15.000000,,2013-05-19 11:53:00,
2013-05-19 08:01:00,54.0,54.0,-100.00,SE,145,3.0,4.0,100,0.00,,,0.01,15.000000,,2013-05-19 12:01:00,
2013-05-19 08:12:00,54.0,54.0,-100.00,SE,145,3.0,4.0,100,0.00,,,0.01,15.000000,,2013-05-19 12:12:00,
2013-05-19 08:42:00,54.0,54.0,-100.00,SE,146,4.0,6.0,100,0.00,,,0.01,37.000000,,2013-05-19 12:42:00,
2013-05-19 08:52:00,54.0,54.0,-100.00,SE,146,4.0,6.0,100,0.00,,,0.01,37.000000,,2013-05-19 12:52:00,
2013-05-19 09:01:00,54.0,54.0,-100.00,SE,146,4.0,6.0,100,0.00,,,0.01,37.000000,,2013-05-19 13:01:00,
2013-05-19 09:11:00,54.0,54.0,-100.00,SE,146,4.0,6.0,100,0.00,,,0.01,37.000000,,2013-05-19 13:11:00,
2013-05-19 09:42:00,54.0,54.0,-100.00,SSE,148,4.0,6.0,100,0.01,,,0.02,79.000000,,2013-05-19 13:42:00,
2013-05-19 09:52:00,54.0,54.0,-100.00,SSE,148,4.0,6.0,100,0.01,,,0.02,79.000000,,2013-05-19 13:52:00,
2013-05-19 10:02:00,54.0,54.0,-100.00,SSE,148,4.0,6.0,100,0.01,,,0.02,79.000000,,2013-05-19 14:02:00,
2013-05-19 10:11:00,54.0,54.0,-100.00,SSE,148,4.0,6.0,100,0.01,,,0.02,79.000000,,2013-05-19 14:11:00,
2013-05-19 10:42:00,55.0,55.0,-100.00,SSE,148,3.0,6.0,100,0.00,,,0.02,92.000000,,2013-05-19 14:42:00,
2013-05-19 10:52:00,55.0,55.0,-100.00,SSE,148,3.0,6.0,100,0.00,,,0.02,92.000000,,2013-05-19 14:52:00,
2013-05-19 11:02:00,55.0,55.0,-100.00,SSE,148,3.0,6.0,100,0.00,,,0.02,92.000000,,2013-05-19 15:02:00,
2013-05-19 11:12:00,55.0,55.0,-100.00,SSE,148,3.0,6.0,100,0.00,,,0.02,92.000000,,2013-05-19 15:12:00,
2013-05-19 11:43:00,54.0,54.0,-100.00,SE,143,4.0,5.0,100,0.00,,,0.02,84.000000,,2013-05-19 15:43:00,
2013-05-19 11:53:00,54.0,54.0,-100.00,SE,143,4.0,5.0,100,0.00,,,0.02,84.000000,,2013-05-19 15:53:00,
2013-05-19 12:03:00,54.0,54.0,-100.00,SE,143,4.0,5.0,100,0.00,,,0.02,84.000000,,2013-05-19 16:03:00,
2013-05-19 12:12:00,54.0,54.0,-100.00,SE,143,4.0,5.0,100,0.00,,,0.02,84.000000,,2013-05-19 16:12:00,
2013-05-19 12:42:00,56.0,56.0,-100.00,SSE,147,4.0,5.0,100,0.00,,,0.02,104.000000,,2013-05-19 16:42:00,
2013-05-19 12:53:00,56.0,56.0,-100.00,SSE,147,4.0,5.0,100,0.00,,,0.02,104.000000,,2013-05-19 16:53:00,
2013-05-19 13:02:00,56.0,56.0,-100.00,SSE,147,4.0,5.0,100,0.00,,,0.02,104.000000,,2013-05-19 17:02:00,
2013-05-19 13:12:00,56.0,56.0,-100.00,SSE,147,4.0,5.0,100,0.00,,,0.02,104.000000,,2013-05-19 17:12:00,
2013-05-19 13:43:00,58.0,58.0,-100.00,SSE,156,3.0,5.0,100,0.00,,,0.02,228.000000,,2013-05-19 17:43:00,
2013-05-19 13:52:00,58.0,58.0,-100.00,SSE,156,3.0,5.0,100,0.00,,,0.02,228.000000,,2013-05-19 17:52:00,
2013-05-19 14:02:00,58.0,58.0,-100.00,SSE,156,3.0,5.0,100,0.00,,,0.02,228.000000,,2013-05-19 18:02:00,
2013-05-19 14:12:00,58.0,58.0,-100.00,SSE,156,3.0,5.0,100,0.00,,,0.02,228.000000,,2013-05-19 18:12:00,
2013-05-19 14:43:00,58.0,58.0,-100.00,SE,129,3.0,6.0,100,0.00,,,0.02,156.000000,,2013-05-19 18:43:00,
2013-05-19 14:53:00,58.0,58.0,-100.00,SE,129,3.0,6.0,100,0.00,,,0.02,156.000000,,2013-05-19 18:53:00,
2013-05-19 15:01:00,58.0,58.0,-100.00,SE,129,3.0,6.0,100,0.00,,,0.02,156.000000,,2013-05-19 19:01:00,
2013-05-19 15:11:00,58.0,58.0,-100.00,SE,129,3.0,6.0,100,0.00,,,0.02,156.000000,,2013-05-19 19:11:00,
2013-05-19 15:42:00,60.0,60.0,-100.00,SSE,152,4.0,9.0,100,0.00,,,0.02,154.000000,,2013-05-19 19:42:00,
2013-05-19 15:52:00,60.0,60.0,-100.00,SSE,152,4.0,9.0,100,0.00,,,0.02,154.000000,,2013-05-19 19:52:00,
2013-05-19 16:02:00,60.0,60.0,-100.00,SSE,152,4.0,9.0,100,0.00,,,0.02,154.000000,,2013-05-19 20:02:00,
2013-05-19 16:11:00,60.0,60.0,-100.00,SSE,152,4.0,9.0,100,0.00,,,0.02,154.000000,,2013-05-19 20:11:00,
2013-05-19 16:42:00,60.0,60.0,-100.00,South,173,4.0,10.0,100,0.00,,,0.02,194.000000,,2013-05-19 20:42:00,
2013-05-19 16:52:00,60.0,60.0,-100.00,South,173,4.0,10.0,100,0.00,,,0.02,194.000000,,2013-05-19 20:52:00,
2013-05-19 17:02:00,60.0,60.0,-100.00,South,173,4.0,10.0,100,0.00,,,0.02,194.000000,,2013-05-19 21:02:00,
2013-05-19 17:11:00,60.0,60.0,-100.00,South,173,4.0,10.0,100,0.00,,,0.02,194.000000,,2013-05-19 21:11:00,
2013-05-19 17:43:00,59.0,59.0,-100.00,SSE,152,4.0,13.0,100,0.00,,,0.02,76.000000,,2013-05-19 21:43:00,
2013-05-19 17:53:00,59.0,59.0,-100.00,SSE,152,4.0,13.0,100,0.00,,,0.02,76.000000,,2013-05-19 21:53:00,
2013-05-19 18:03:00,59.0,59.0,-100.00,SSE,152,4.0,13.0,100,0.00,,,0.02,76.000000,,2013-05-19 22:03:00,
2013-05-19 18:12:00,59.0,59.0,-100.00,SSE,152,4.0,13.0,100,0.00,,,0.02,76.000000,,2013-05-19 22:12:00,
2013-05-19 18:43:00,60.0,60.0,-100.00,SSE,154,5.0,11.0,100,0.00,,,0.02,125.000000,,2013-05-19 22:43:00,
2013-05-19 18:53:00,60.0,60.0,-100.00,SSE,154,5.0,11.0,100,0.00,,,0.02,125.000000,,2013-05-19 22:53:00,
2013-05-19 19:03:00,60.0,60.0,-100.00,SSE,154,5.0,11.0,100,0.00,,,0.02,125.000000,,2013-05-19 23:03:00,
2013-05-19 19:12:00,60.0,60.0,-100.00,SSE,154,5.0,11.0,100,0.00,,,0.02,125.000000,,2013-05-19 23:12:00,
2013-05-19 19:42:00,59.0,59.0,-100.00,SE,145,4.0,8.0,100,0.00,,,0.02,53.000000,,2013-05-19 23:42:00,
2013-05-19 19:52:00,59.0,59.0,-100.00,SE,145,4.0,8.0,100,0.00,,,0.02,53.000000,,2013-05-19 23:52:00,
2013-05-19 20:02:00,59.0,59.0,-100.00,SE,145,4.0,8.0,100,0.00,,,0.02,53.000000,,2013-05-20 00:02:00,
2013-05-19 20:12:00,59.0,59.0,-100.00,SE,145,4.0,8.0,100,0.00,,,0.02,53.000000,,2013-05-20 00:12:00,
2013-05-19 20:42:00,59.0,59.0,-100.00,SSE,158,3.0,13.0,100,0.00,,,0.02,17.000000,,2013-05-20 00:42:00,
2013-05-19 20:52:00,59.0,59.0,-100.00,SSE,158,3.0,13.0,100,0.00,,,0.02,17.000000,,2013-05-20 00:52:00,
2013-05-19 21:01:00,59.0,59.0,-100.00,SSE,158,3.0,13.0,100,0.00,,,0.02,17.000000,,2013-05-20 01:01:00,
2013-05-19 21:11:00,59.0,59.0,-100.00,SSE,158,3.0,13.0,100,0.00,,,0.02,17.000000,,2013-05-20 01:11:00,
2013-05-19 21:32:00,59.0,59.0,-100.00,SSE,160,4.0,10.0,100,0.00,,,0.02,0.000000,,2013-05-20 01:32:00,
2013-05-19 21:42:00,59.0,59.0,-100.00,SSE,160,4.0,10.0,100,0.00,,,0.02,0.000000,,2013-05-20 01:42:00,
2013-05-19 21:52:00,59.0,59.0,-100.00,SSE,160,4.0,10.0,100,0.00,,,0.02,0.000000,,2013-05-20 01:52:00,
2013-05-19 22:02:00,59.0,59.0,-100.00,SSE,160,4.0,10.0,100,0.00,,,0.02,0.000000,,2013-05-20 02:02:00,
2013-05-19 22:12:00,59.0,59.0,-100.00,SSE,160,4.0,10.0,100,0.00,,,0.02,0.000000,,2013-05-20 02:12:00,
2013-05-19 22:42:00,59.0,59.0,-100.00,SSE,151,4.0,7.0,100,0.00,,,0.01,0.000000,,2013-05-20 02:42:00,
2013-05-19 22:52:00,59.0,59.0,-100.00,SSE,151,4.0,7.0,100,0.00,,,0.01,0.000000,,2013-05-20 02:52:00,
2013-05-19 23:02:00,59.0,59.0,-100.00,SSE,151,4.0,7.0,100,0.00,,,0.01,0.000000,,2013-05-20 03:02:00,
2013-05-19 23:11:00,59.0,59.0,-100.00,SSE,151,4.0,7.0,100,0.00,,,0.01,0.000000,,2013-05-20 03:11:00,
2013-05-19 23:33:00,59.0,59.0,-100.00,SSE,151,4.0,9.0,100,0.00,,,0.01,0.000000,,2013-05-20 03:33:00,
2013-05-19 23:43:00,59.0,59.0,-100.00,SSE,151,4.0,9.0,100,0.00,,,0.01,0.000000,,2013-05-20 03:43:00,
2013-05-19 23:53:00,59.0,59.0,-100.00,SSE,151,4.0,9.0,100,0.00,,,0.01,0.000000,,2013-05-20 03:53:00,